#timestamp,LO_Frequency,Hit,StdDev 
1593381615.6,286046996.8,N
1593381635.4,286047001.0,N
1593381655.2,286047000.1,N
1593381675.1,286047001.2,N
1593381676.0,286047001.2,N
1593381695.8,286046998.4,N
1593381715.7,286046998.9,N
1593381735.5,286046996.5,N
1593381755.3,286046997.1,N
1593381775.2,286046999.2,N
1593381795.0,286046999.0,N
1593381795.9,286046999.0,N
1593381815.8,286046996.8,N
1593381835.6,286046997.9,N
1593381855.4,286046996.7,N
1593381875.3,286046997.7,N
1593381895.1,286046999.5,N
1593381915.9,286046999.1,N
1593381935.7,286046999.3,N
1593381955.5,286046997.8,N
1593381975.4,286046995.4,Y
1593381995.2,286046997.0,P
1593382015.1,286046996.5,P
1593382016.0,286046996.5,P
1593382035.8,286046996.5,Y
1593382055.6,286047000.5,P
1593382075.5,286047000.3,N
1593382095.3,286047000.8,N
1593382115.2,286047000.6,N
1593382135.9,286047000.9,N
1593382155.7,286047000.6,N
1593382175.6,286047000.3,N
1593382195.4,286047002.8,N
1593382215.2,286047002.5,N
1593382235.1,286047004.3,N
1593382236.0,286047004.3,N
1593382255.8,286047003.6,N
1593382275.7,286047003.6,N
1593382295.5,286047003.5,N
1593382315.3,286047003.5,N
1593382335.2,286047004.2,N
1593382355.0,286047003.9,N
1593382355.9,286047003.9,N
1593382375.8,286047003.7,N
1593382395.6,286047005.3,N
1593382415.4,286047003.5,N
1593382435.3,286047006.0,Y
1593382455.1,286047002.5,P
1593382475.9,286046999.7,P
1593382495.7,286046999.8,N
1593382515.5,286047001.9,N
1593382535.4,286047004.4,Y
1593382555.2,286047000.3,P
1593382575.0,286047002.3,P
1593382575.9,286047002.3,N
1593382595.8,286046999.7,N
1593382615.6,286047000.6,N
1593382635.5,286047000.9,N
1593382655.3,286047000.8,N
1593382675.1,286047002.7,Y
1593382695.9,286046998.6,P
1593382715.7,286046998.6,N
1593382735.6,286046998.9,N
1593382755.4,286046998.6,N
1593382775.2,286047001.1,N
1593382795.1,286046998.6,N
1593382796.0,286046998.6,N
1593382815.8,286047000.7,N
1593382835.6,286046998.1,N
1593382855.5,286047000.7,N
1593382875.3,286047001.1,N
1593382895.2,286047001.0,N
1593382915.0,286047001.1,N
1593382915.9,286047001.1,N
1593382935.8,286046998.4,N
1593382955.6,286046998.6,N
1593382975.4,286046998.7,N
1593382995.3,286046998.5,N
1593383015.1,286046998.1,N
1593383035.8,286046999.1,N
1593383055.7,286046998.1,N
1593383075.5,286047000.5,N
1593383095.4,286047001.2,N
1593383115.2,286046998.8,N
1593383135.0,286046998.6,N
1593383135.9,286046998.6,N
1593383155.8,286046998.1,N
1593383175.6,286047000.8,N
1593383195.5,286046999.0,N
1593383215.3,286046998.2,N
1593383235.1,286046998.7,N
1593383255.9,286046998.9,N
1593383275.7,286046997.2,N
1593383295.5,286047001.2,N
1593383315.4,286046998.5,N
1593383335.2,286046998.6,N
1593383355.1,286047000.9,N
1593383356.0,286047000.9,N
1593383375.8,286047001.0,N
1593383395.6,286047000.2,N
1593383415.5,286047000.1,N
1593383435.3,286047002.7,N
1593383455.1,286047000.7,N
1593383475.9,286046998.1,N
1593383495.7,286047000.6,N
1593383515.6,286047001.0,N
1593383535.4,286047002.5,N
1593383555.2,286047002.1,N
1593383575.1,286046999.7,N
1593383576.0,286046999.7,N
1593383595.8,286047000.2,N
1593383615.7,286046998.8,N
1593383635.5,286046998.7,N
1593383655.3,286047000.8,N
1593383675.2,286046998.7,N
1593383695.0,286046998.2,N
1593383695.9,286046998.2,N
1593383715.8,286046998.4,N
1593383735.6,286047000.7,N
1593383755.4,286047002.1,N
1593383775.3,286046999.8,N
1593383795.1,286047002.1,N
1593383815.9,286047002.7,N
1593383835.7,286047002.3,N
1593383855.5,286046999.7,N
1593383875.4,286047000.6,N
1593383895.2,286047002.8,N
1593383915.0,286047002.7,N
1593383916.0,286047002.7,N
1593383935.8,286047000.2,N
1593383955.6,286047002.7,N
1593383975.5,286047000.2,N
1593383995.3,286047000.2,N
1593384015.1,286047000.8,N
1593384035.9,286046998.6,N
1593384055.7,286047000.1,N
1593384075.6,286046999.8,N
1593384095.4,286047002.3,N
1593384115.2,286047001.9,N
1593384135.1,286047002.4,N
1593384136.0,286047002.4,N
1593384155.8,286047000.2,N
1593384175.6,286047001.9,N
1593384195.5,286047006.0,Y
1593384215.3,286047003.9,P
1593384235.2,286047001.6,N
1593384255.0,286047001.6,N
1593384255.9,286047001.6,N
1593384275.7,286047001.7,N
1593384295.6,286047002.4,N
1593384315.4,286047002.2,N
1593384335.3,286046999.9,N
1593384355.1,286047000.2,N
1593384356.0,286047000.2,N
1593384375.8,286047002.2,N
1593384395.7,286047000.1,N
1593384415.5,286047001.6,N
1593384435.4,286047001.6,N
1593384455.2,286047001.9,N
1593384475.0,286047002.2,N
1593384475.9,286047002.2,N
1593384495.8,286047002.5,N
1593384515.6,286047002.4,N
1593384535.4,286046999.7,N
1593384555.3,286047002.7,N
1593384575.1,286047000.4,N
1593384595.9,286047002.0,N
1593384615.7,286047002.7,N
1593384635.5,286047002.1,N
1593384655.4,286047001.6,N
1593384675.2,286047000.4,N
1593384695.1,286047004.0,Y
1593384696.0,286047004.0,P
1593384715.8,286046994.1,P
1593384735.6,286046999.0,N
1593384755.5,286046998.8,N
1593384775.3,286046996.7,N
1593384795.1,286046996.5,N
1593384815.9,286046996.9,N
1593384835.7,286046999.1,N
1593384855.6,286047002.7,N
1593384875.4,286047000.0,N
1593384895.2,286046998.7,N
1593384915.1,286047002.0,N
1593384916.0,286047002.0,N
1593384935.8,286047001.1,N
1593384955.7,286047000.1,N
1593384975.5,286046998.8,N
1593384995.3,286046998.2,N
1593385015.2,286047001.1,N
1593385035.0,286046998.8,N
1593385035.9,286046998.8,N
1593385055.7,286047001.9,N
1593385075.6,286046999.3,N
1593385095.4,286046997.3,N
1593385115.3,286046996.6,N
1593385135.1,286046996.6,N
1593385155.8,286046997.2,N
1593385175.7,286046999.3,N
1593385195.5,286046997.2,N
